Dewpoint
50 50 51 52 53 53 54 55 55 56 56 56 56 56 57 57 57 58 58 58 58 58 58 58 58 58 58 58 58 58 58 58 58 59 59 59 59 59 59 59 59 59 59 59 59 59 59 59 59 59 59 59 59 59 59 59 58 58 58 57 57 57 57 57 57 57 57 57 57
48 49 50 51 51 51 51 52 53 53 54 54 54 55 55 55 56 56 57 57 57 58 58 58 58 58 58 58 58 58 58 58 58 58 58 58 58 58 59 59 59 59 59 59 59 59 59 59 59 59 59 59 59 59 59 59 58 58 57 57 57 57 57 57 57 57 57 57 57
47 48 48 49 49 50 50 50 50 50 50 51 52 53 53 54 55 55 55 56 56 56 56 56 57 57 57 57 57 57 57 57 57 57 57 58 58 58 58 58 59 59 59 60 59 59 58 58 58 58 58 59 59 58 58 58 58 58 58 57 57 57 57 57 57 57 57 57 57
46 47 47 48 48 48 49 49 49 49 50 50 51 51 52 53 53 54 54 54 54 54 55 55 55 55 55 55 55 55 56 56 56 56 57 57 57 57 57 57 58 59 60 61 61 60 59 59 59 58 58 57 58 58 58 58 58 58 58 57 57 57 57 57 57 57 57 57 57
46 46 47 47 48 48 48 48 49 49 49 50 50 50 51 51 52 52 52 52 52 52 52 53 52 53 53 53 54 54 54 55 55 55 55 56 56 56 57 57 57 57 57 59 60 60 59 59 59 59 59 57 57 57 58 58 58 58 58 58 57 57 57 57 57 57 57 57 56
45 46 46 46 46 47 47 47 48 48 48 49 49 50 50 50 50 50 50 50 50 51 51 51 52 52 52 52 52 52 52 53 53 53 53 54 54 55 55 56 56 56 56 56 57 57 58 59 59 58 58 58 58 57 56 57 57 57 57 57 57 57 57 57 57 57 57 56 56
45 45 45 45 45 46 46 46 46 47 47 48 48 48 48 49 49 49 49 49 50 50 50 50 50 51 50 50 50 50 50 50 50 51 51 51 52 53 53 54 54 55 55 55 55 55 56 59 59 59 57 56 55 55 55 55 56 56 56 56 56 57 57 56 57 57 56 56 56
44 45 45 45 45 45 45 46 46 46 46 46 46 46 47 47 47 47 47 47 48 48 49 49 49 48 48 48 48 48 48 49 49 49 50 50 50 51 51 51 52 53 53 54 54 55 55 57 59 59 57 55 55 55 55 55 56 56 55 55 55 56 56 56 56 56 56 56 56
44 44 45 45 45 45 45 45 45 45 45 45 45 45 46 46 46 46 46 46 46 46 46 46 46 46 46 46 46 46 47 47 47 48 48 48 49 49 50 50 50 51 51 52 53 53 54 54 55 56 57 58 57 56 56 56 56 56 55 55 55 55 56 56 56 56 56 56 55
43 44 44 45 45 45 45 45 45 45 45 45 45 45 45 46 46 45 45 45 45 45 45 45 45 45 45 45 45 46 46 46 46 46 46 47 47 48 48 49 49 50 50 51 51 52 52 53 54 54 55 56 56 57 56 56 57 56 56 56 56 55 55 55 56 56 56 55 55
44 44 44 44 45 45 45 45 45 45 45 45 45 45 45 46 45 45 45 45 45 45 45 45 45 45 45 45 45 45 45 45 45 45 45 46 46 46 47 48 48 49 50 50 50 51 51 52 53 53 54 55 55 55 55 56 56 56 56 56 56 56 55 55 55 56 56 56 55
45 45 45 45 45 45 45 45 45 45 45 45 45 45 45 45 45 46 46 45 46 46 46 46 46 46 45 45 45 45 45 45 45 45 45 45 45 46 46 47 48 48 49 49 50 50 50 51 51 52 53 53 54 54 55 55 55 55 55 55 56 55 55 55 55 55 55 56 56
46 46 45 46 46 46 46 46 46 45 45 45 46 46 46 46 46 46 46 46 46 46 46 46 46 46 46 46 46 46 46 46 45 45 45 45 45 45 46 46 47 47 48 49 49 50 50 50 50 51 51 52 52 53 53 54 54 54 55 55 55 55 55 54 55 55 55 55 56
46 46 46 46 46 46 46 46 46 46 46 46 46 46 46 46 46 46 46 46 46 46 46 46 46 46 46 46 46 46 46 46 46 46 45 45 45 45 45 46 46 46 47 47 48 49 49 50 50 50 51 51 51 52 52 53 53 53 54 54 54 54 54 55 55 55 55 54 55
46 46 46 46 46 46 46 46 46 46 46 45 45 46 46 46 46 46 46 45 45 45 45 45 45 45 45 45 45 46 46 46 46 46 46 46 46 46 46 45 46 46 46 46 47 47 48 49 50 50 50 51 51 51 52 52 52 53 53 53 54 54 54 54 54 54 54 54 54
46 46 46 45 45 45 45 45 45 45 45 44 44 44 44 44 44 44 44 44 43 43 43 43 43 43 43 44 44 44 45 45 45 45 45 45 46 46 46 46 46 46 46 46 46 46 47 48 48 49 50 50 50 51 51 52 52 52 53 53 53 53 53 53 54 54 54 54 54
45 45 45 45 45 44 44 44 44 44 43 43 43 43 43 43 42 43 43 42 42 41 41 41 41 41 42 42 43 43 43 43 44 44 44 45 45 45 46 46 46 46 46 46 46 46 46 47 47 48 49 49 50 50 50 51 51 51 52 52 52 52 52 52 52 52 52 52 53
44 44 44 44 44 44 43 43 43 42 42 42 41 41 41 41 41 41 41 41 41 41 40 40 40 41 41 41 41 42 42 42 42 43 43 44 44 45 45 46 46 46 46 46 46 46 46 47 47 47 48 48 49 49 50 50 50 50 51 51 51 51 51 51 51 51 51 51 51
44 44 44 44 44 43 43 43 42 42 41 41 41 41 41 41 40 40 40 40 40 40 39 39 39 39 39 39 40 41 41 41 41 42 42 43 43 43 44 44 45 46 46 46 47 47 47 47 47 47 48 48 48 49 49 50 50 50 50 51 51 51 51 51 51 51 51 51 51
44 44 44 44 43 43 43 42 42 41 41 41 40 40 40 40 40 39 39 39 39 39 39 38 38 38 38 39 39 39 40 41 41 41 41 42 42 42 43 43 44 45 46 46 46 47 47 47 48 48 48 49 49 50 50 50 51 51 51 51 51 51 51 51 51 51 51 51 51
44 44 44 44 43 43 42 42 41 41 41 41 40 40 40 39 39 38 38 38 38 38 38 38 38 38 38 38 38 39 39 41 40 41 41 41 41 42 42 43 44 44 45 46 46 46 47 48 48 49 49 50 50 50 50 51 51 51 51 51 51 51 51 51 51 51 50 51 51
44 44 44 43 43 42 42 41 41 41 40 40 40 40 39 39 39 38 38 38 38 38 37 38 38 38 38 38 38 38 39 40 40 40 41 41 41 42 42 43 44 44 44 45 46 46 47 48 49 49 50 50 50 50 50 50 50 50 50 50 50 50 50 50 50 50 50 50 50
44 43 43 43 42 42 42 41 41 40 40 40 39 39 39 39 38 38 38 38 38 37 37 37 38 38 38 38 38 38 39 39 39 40 41 41 41 42 42 43 44 44 44 45 46 46 47 48 48 49 49 49 50 50 49 49 49 49 49 49 49 49 49 49 49 50 50 50 50
43 42 42 41 41 41 41 40 40 40 39 39 39 39 38 38 38 38 38 38 37 37 37 37 37 38 38 38 38 38 39 39 40 40 41 41 41 42 42 43 43 44 44 46 47 47 48 48 48 48 48 48 48 48 48 48 48 48 48 48 48 48 48 48 48 49 49 49 49
41 41 41 41 40 40 40 39 39 39 39 38 38 38 38 38 38 38 37 37 37 37 37 37 37 38 38 38 39 39 39 40 40 41 41 41 41 42 42 43 43 44 45 46 47 48 48 49 48 48 47 47 47 47 47 47 47 47 47 47 47 47 47 47 47 48 48 48 48
40 40 40 39 39 39 39 39 38 38 38 38 38 38 38 38 38 37 37 37 37 37 37 37 38 38 39 39 39 40 40 40 41 41 41 41 41 42 42 42 43 44 45 45 46 47 48 49 49 48 47 47 47 47 47 47 47 47 47 47 47 47 46 46 46 47 47 47 47
39 38 38 38 38 38 38 38 38 38 38 38 38 37 37 37 37 37 37 37 37 37 37 37 38 39 40 39 39 40 40 40 40 41 41 41 41 41 41 42 42 43 44 45 46 47 48 49 49 49 48 47 46 46 46 46 46 46 46 46 46 46 46 46 46 46 46 46 47
37 37 37 37 37 37 37 37 37 37 37 37 37 37 37 37 37 37 37 37 37 37 37 38 38 39 39 39 39 39 39 39 40 40 40 40 40 41 41 41 41 42 44 45 46 47 47 48 48 48 48 47 46 46 46 46 46 46 46 46 46 46 46 46 46 46 46 46 46
35 35 35 36 36 36 36 36 37 37 37 37 36 36 36 36 36 36 36 36 37 37 37 38 38 38 38 38 38 38 38 38 38 39 40 39 39 39 40 40 41 42 43 45 46 46 46 47 47 48 48 48 46 46 46 45 45 45 46 46 46 46 46 46 46 46 46 46 46
33 33 33 33 34 34 34 34 35 35 35 35 35 35 34 34 34 34 35 36 36 37 37 38 38 38 37 37 37 37 37 38 38 38 38 38 38 38 38 39 40 41 42 44 45 46 46 46 46 47 47 47 46 46 45 45 45 46 46 46 46 46 46 46 46 46 46 46 47
32 32 32 32 32 32 32 32 32 33 33 33 33 32 32 32 32 33 34 35 36 37 38 38 38 37 37 37 37 37 37 37 37 37 37 36 37 37 37 38 38 39 41 43 44 45 46 46 46 46 46 47 46 45 45 45 46 46 46 46 46 46 46 46 46 46 46 46 46
30 30 30 30 29 29 30 30 30 31 31 31 31 30 30 30 32 33 34 35 35 36 37 37 37 36 36 36 35 35 36 36 36 36 36 36 36 36 36 36 36 38 40 43 44 45 45 46 46 46 46 46 46 46 46 46 46 46 46 46 46 46 46 46 46 46 46 46 46
28 28 28 28 28 28 28 28 28 29 29 29 29 29 29 30 31 32 32 33 34 35 36 36 35 35 35 34 34 34 34 34 34 34 35 35 35 35 35 35 36 37 40 42 44 45 45 46 46 46 46 46 46 46 46 46 46 46 46 45 45 45 45 46 46 46 46 46 46
28 28 27 27 27 27 27 27 27 27 28 28 27 28 28 30 30 31 31 32 33 34 34 34 34 34 34 34 34 33 33 33 33 33 33 33 33 33 34 34 34 37 40 42 43 44 45 45 45 46 46 47 46 46 46 46 45 45 45 44 45 45 45 45 45 46 46 46 46
27 27 27 26 26 26 26 26 26 26 26 26 26 27 28 29 30 30 31 32 32 32 32 32 32 32 32 32 32 32 32 32 32 32 32 32 32 32 32 33 34 37 41 42 43 44 44 45 45 46 46 47 46 46 45 45 44 44 44 44 44 44 45 45 45 45 46 46 46
26 26 26 26 26 25 25 25 26 26 25 25 26 28 28 29 29 29 30 31 30 30 30 30 30 30 30 31 31 31 31 31 31 31 30 31 31 31 31 32 33 36 40 41 42 43 44 44 45 46 46 46 46 45 44 43 43 43 43 43 43 44 44 44 45 45 46 46 46
26 26 25 25 25 25 25 25 25 25 25 25 27 28 28 28 28 28 29 29 28 28 28 28 28 28 29 29 29 30 30 30 30 30 30 30 30 30 30 31 32 35 38 40 41 42 43 44 45 46 46 46 44 43 43 42 42 41 41 41 42 43 44 44 45 45 45 45 45
25 25 25 24 24 24 24 24 24 24 24 25 27 28 28 28 28 28 28 28 27 26 26 26 27 27 28 29 29 29 29 29 29 29 29 29 29 29 29 30 32 34 36 39 40 41 43 44 45 46 46 45 43 42 42 41 41 40 40 41 41 43 44 45 45 45 45 44 43
24 24 23 23 23 23 23 23 23 24 25 26 27 27 27 27 26 26 27 27 26 25 25 25 25 26 28 28 28 28 27 28 29 29 29 28 28 29 30 30 31 32 35 37 39 41 42 43 44 45 45 44 42 41 41 40 40 39 39 40 41 42 44 45 44 43 43 42 42
23 22 22 22 22 22 22 22 23 24 25 27 26 26 26 25 25 25 25 25 24 24 24 24 24 25 26 27 27 26 27 27 28 29 29 29 29 31 32 30 30 31 33 36 38 40 41 43 44 44 44 43 41 41 41 40 39 39 40 40 41 42 42 42 41 41 41 41 41
21 21 21 21 21 21 21 21 22 24 25 26 25 25 25 24 24 23 23 23 23 23 23 22 22 23 23 25 26 26 26 26 28 28 29 29 29 31 31 30 30 30 31 34 37 39 41 42 43 44 44 42 41 41 40 40 39 40 40 41 41 41 40 39 39 39 39 40 41